Ashland, WI

10:16 AM CDT on July 20, 2017 (GMT -0500)
Kennedy Memorial

Weather History for KASX - December, 2013

Change the Weather History Date:

Sunday, December 22, 2013

  Actual Average Record
Temperature  
Mean Temperature 20 °F -  
Max Temperature 24 °F 27 °F 43 °F (1991)
Min Temperature 15 °F 6 °F -20 °F (1989)
Degree Days  
Heating Degree Days 46    
Moisture  
Dew Point 19 °F    
Average Humidity 90    
Maximum Humidity 93    
Minimum Humidity 86    
Precipitation  
Precipitation 0.73 in - - ()
Sea Level Pressure  
Sea Level Pressure 30.05 in    
Wind  
Wind Speed 12 mph (NNE)    
Max Wind Speed 22 mph    
Max Gust Speed 30 mph    
Visibility 1 miles    
Events Fog , Snow    
Averages and records for this station are not official NWS values.
T = Trace of Precipitation, MM = Missing Value Source: NWS Daily Summary

Daily Weather History Graph

Daily Weather History Graph

Search for Another Location

Airport or City:

Trip Planner

Search our weather history database for the weather conditions in past years. The results will help you decide how hot, cold, wet, or windy it might be!

Date:

Astronomy

Dec. 22, 2013 Rise Set
Actual Time 7:45 AM CST 4:19 PM CST
Civil Twilight 7:10 AM CST 4:54 PM CST
Nautical Twilight 6:31 AM CST 5:33 PM CST
Astronomical Twilight 5:54 AM CST 6:10 PM CST
Moon 9:49 PM CST (12/22) 10:25 AM CST (12/22)
Length of Visible Light 9h 44m
Length of Day
8h 34m
Waning Gibbous, 76% of the Moon is Illuminated
Dec 22
Waning Gibbous
Dec 25
Last Quarter
Jan 1
New
Jan 7
First Quarter
Jan 15
Full

Hourly Weather History & Observations

Time (CST) Temp. Windchill Dew Point Humidity Pressure Visibility Wind Dir Wind Speed Gust Speed Precip Events Conditions
12:53 AM 15.1 °F 9.4 °F 12.0 °F 88% 30.01 in 2.0 mi NNE 3.5 mph - 0.00 in Snow Light Snow
12:56 AM 15.8 °F - 12.2 °F 86% 29.95 in 1.5 mi Calm Calm - 0.00 in Snow Light Snow
1:10 AM 19.4 °F 11.5 °F 17.6 °F 93% 29.95 in 0.8 mi NNE 5.8 mph - 0.01 in Snow Light Snow
1:21 AM 21.2 °F 14.9 °F 19.4 °F 93% 29.95 in 0.5 mi NNE 4.6 mph - 0.02 in Fog , Snow Snow
1:44 AM 21.2 °F 8.9 °F 19.4 °F 93% 29.95 in 1.5 mi NE 12.7 mph - 0.04 in Snow Light Snow
1:53 AM 21.9 °F 12.5 °F 19.0 °F 89% 30.00 in 1.8 mi NE 8.1 mph - 0.05 in Snow Light Snow
2:53 AM 23.0 °F 9.2 °F 19.9 °F 88% 30.01 in 2.0 mi NE 17.3 mph - 0.01 in Snow Light Snow
3:43 AM 23.0 °F 8.3 °F 19.4 °F 86% 29.96 in 3.0 mi NNE 19.6 mph - 0.00 in Snow Light Snow
3:53 AM 23.0 °F 7.6 °F 19.9 °F 88% 30.01 in 3.0 mi NNE 21.9 mph 29.9 mph 0.00 in Snow Light Snow
4:00 AM 23.0 °F 8.0 °F 19.4 °F 86% 29.96 in 2.0 mi NNE 20.7 mph 29.9 mph 0.00 in Snow Light Snow
4:17 AM 23.0 °F 9.6 °F 19.4 °F 86% 29.97 in 1.2 mi NNE 16.1 mph 28.8 mph 0.01 in Snow Light Snow
4:53 AM 21.9 °F 7.8 °F 19.0 °F 89% 30.02 in 1.0 mi NNE 17.3 mph 24.2 mph 0.02 in Snow Light Snow
5:02 AM 21.2 °F 7.8 °F 19.4 °F 93% 29.97 in 0.8 mi NNE 15.0 mph 26.5 mph 0.00 in Snow Light Snow
5:10 AM 21.2 °F 6.4 °F 19.4 °F 93% 29.97 in 1.0 mi NNE 18.4 mph 25.3 mph 0.00 in Snow Light Snow
5:37 AM 21.2 °F 6.4 °F 19.4 °F 93% 29.97 in 3.0 mi NNE 18.4 mph 27.6 mph 0.01 in Snow Light Snow
5:50 AM 21.2 °F 6.8 °F 19.4 °F 93% 29.98 in 2.0 mi NNE 17.3 mph - 0.01 in Snow Light Snow
5:53 AM 21.9 °F 6.5 °F 19.0 °F 89% 30.03 in 2.5 mi NNE 20.7 mph 27.6 mph 0.01 in Snow Light Snow
6:03 AM 21.2 °F 8.9 °F 19.4 °F 93% 29.98 in 3.0 mi NNE 12.7 mph - 0.00 in Snow Light Snow
6:53 AM 21.0 °F 6.2 °F 18.0 °F 88% 30.04 in 3.0 mi North 18.4 mph - 0.00 in Snow Light Snow
7:03 AM 21.2 °F 6.4 °F 17.6 °F 86% 29.99 in 2.5 mi North 18.4 mph - 0.00 in Snow Light Snow
7:46 AM 19.4 °F 4.5 °F 17.6 °F 93% 29.99 in 3.0 mi North 17.3 mph - 0.00 in Snow Light Snow
7:53 AM 19.9 °F 4.8 °F 17.1 °F 89% 30.04 in 2.0 mi North 18.4 mph - 0.00 in Snow Light Snow
8:01 AM 19.4 °F 4.1 °F 17.6 °F 93% 29.99 in 1.2 mi North 18.4 mph - 0.00 in Snow Light Snow
8:16 AM 21.2 °F 6.4 °F 17.6 °F 86% 29.99 in 1.0 mi NNE 18.4 mph - 0.00 in Snow Light Snow
8:33 AM 21.2 °F 7.3 °F 17.6 °F 86% 29.99 in 0.5 mi North 16.1 mph - 0.00 in Fog , Snow Snow
8:50 AM 21.2 °F 7.3 °F 17.6 °F 86% 29.99 in 0.2 mi North 16.1 mph - 0.01 in Fog , Snow Snow
8:53 AM 21.0 °F 8.1 °F 18.0 °F 88% 30.04 in 0.2 mi North 13.8 mph - 0.01 in Fog , Snow Snow
9:53 AM 21.9 °F 7.8 °F 19.0 °F 89% 30.04 in 0.2 mi North 17.3 mph - 0.02 in Fog Light Freezing Fog
10:37 AM 24.8 °F 11.5 °F 21.2 °F 86% 30.00 in 0.5 mi NNE 17.3 mph - 0.03 in Fog , Snow Snow
10:53 AM 24.1 °F 9.8 °F 21.0 °F 88% 30.05 in 0.2 mi NNE 19.6 mph 25.3 mph 0.04 in Fog , Snow Snow
11:53 AM 24.1 °F 12.0 °F 21.0 °F 88% 30.05 in 0.2 mi NE 13.8 mph - 0.06 in Fog , Snow Snow
12:02 PM 23.0 °F 8.7 °F 19.4 °F 86% 30.00 in 0.5 mi NE 18.4 mph - 0.01 in Fog , Snow Snow
12:14 PM 23.0 °F 9.6 °F 19.4 °F 86% 30.00 in 0.2 mi NNE 16.1 mph - 0.02 in Fog , Snow Heavy Snow
12:53 PM 23.0 °F 9.2 °F 19.9 °F 88% 30.05 in 0.2 mi NE 17.3 mph 25.3 mph 0.05 in Fog , Snow Heavy Snow
1:17 PM 23.0 °F 9.2 °F 19.4 °F 86% 30.00 in 0.5 mi NNE 17.3 mph 24.2 mph 0.01 in Fog , Snow Snow
1:53 PM 21.9 °F 8.7 °F 19.0 °F 89% 30.06 in 0.2 mi NE 15.0 mph - 0.02 in Fog , Snow Heavy Snow
2:00 PM 21.2 °F 6.4 °F 19.4 °F 93% 30.01 in 0.5 mi NE 18.4 mph 24.2 mph 0.01 in Fog , Snow Snow
2:30 PM 21.2 °F 7.3 °F 19.4 °F 93% 30.02 in 0.5 mi NNE 16.1 mph 21.9 mph 0.02 in Fog , Snow Snow
2:45 PM 21.2 °F 8.9 °F 19.4 °F 93% 30.02 in 0.5 mi NNE 12.7 mph - 0.02 in Fog , Snow Snow
2:53 PM 21.9 °F 9.2 °F 19.0 °F 89% 30.07 in 0.8 mi NNE 13.8 mph - 0.02 in Snow Light Snow
3:01 PM 21.2 °F 9.5 °F 19.4 °F 93% 30.03 in 1.0 mi NNE 11.5 mph - 0.00 in Snow Light Snow
3:13 PM 21.2 °F 8.3 °F 17.6 °F 86% 30.03 in 0.8 mi NNE 13.8 mph - 0.00 in Snow Light Snow
3:53 PM 21.0 °F 8.1 °F 19.0 °F 92% 30.10 in 0.5 mi NNE 13.8 mph - 0.01 in Fog , Snow Snow
4:15 PM 21.2 °F 7.8 °F 19.4 °F 93% 30.06 in 0.8 mi NNE 15.0 mph - 0.01 in Snow Light Snow
4:23 PM 21.2 °F 7.8 °F 19.4 °F 93% 30.06 in 0.8 mi NNE 15.0 mph - 0.01 in Snow Light Snow
4:53 PM 21.0 °F 8.6 °F 19.0 °F 92% 30.12 in 0.8 mi NNE 12.7 mph 20.7 mph 0.02 in Snow Light Snow
5:32 PM 21.2 °F 6.4 °F 19.4 °F 93% 30.08 in 0.8 mi North 18.4 mph - 0.02 in Snow Light Snow
5:46 PM 21.2 °F 8.3 °F 19.4 °F 93% 30.09 in 0.5 mi NNE 13.8 mph - 0.03 in Fog Light Freezing Fog
5:53 PM 21.9 °F 8.7 °F 19.9 °F 92% 30.13 in 0.5 mi NNE 15.0 mph - 0.04 in Fog Light Freezing Fog
6:17 PM 23.0 °F 10.1 °F 19.4 °F 86% 30.09 in 1.2 mi NE 15.0 mph - 0.01 in Snow Light Snow
6:26 PM 23.0 °F 11.1 °F 19.4 °F 86% 30.09 in 0.5 mi NNE 12.7 mph - 0.02 in Fog , Snow Snow
6:53 PM 23.0 °F 13.1 °F 21.0 °F 92% 30.15 in 0.5 mi NE 9.2 mph - 0.07 in Fog , Snow Snow
7:06 PM 23.0 °F 13.1 °F 21.2 °F 93% 30.10 in 1.2 mi NE 9.2 mph - 0.00 in Snow Light Snow
7:15 PM 23.0 °F 13.1 °F 21.2 °F 93% 30.10 in 0.8 mi NE 9.2 mph - 0.01 in Snow Light Snow
7:33 PM 23.0 °F 12.4 °F 19.4 °F 86% 30.10 in 0.2 mi NE 10.4 mph - 0.04 in Fog , Snow Heavy Snow
7:51 PM 23.0 °F 13.9 °F 19.4 °F 86% 30.11 in 0.8 mi NE 8.1 mph - 0.07 in Snow Light Snow
7:53 PM 23.0 °F 13.1 °F 19.9 °F 88% 30.16 in 0.8 mi NE 9.2 mph - 0.07 in Snow Light Snow
8:41 PM 21.2 °F 10.1 °F 19.4 °F 93% 30.11 in 0.2 mi NE 10.4 mph - 0.06 in Fog , Snow Heavy Snow
8:46 PM 21.2 °F 10.9 °F 19.4 °F 93% 30.12 in 0.5 mi NE 9.2 mph - 0.07 in Fog , Snow Snow
8:53 PM 21.9 °F 11.0 °F 19.0 °F 89% 30.17 in 0.5 mi NE 10.4 mph - 0.07 in Fog , Snow Snow
9:53 PM 21.9 °F 11.0 °F 19.0 °F 89% 30.18 in 0.8 mi NE 10.4 mph - 0.08 in Snow Light Snow
10:09 PM 21.2 °F 9.5 °F 19.4 °F 93% 30.13 in 1.0 mi ENE 11.5 mph - 0.01 in Snow Light Snow
10:18 PM 21.2 °F 8.9 °F 19.4 °F 93% 30.13 in 0.8 mi NE 12.7 mph - 0.02 in Snow Light Snow
10:50 PM 21.2 °F 9.5 °F 17.6 °F 86% 30.14 in 0.8 mi NE 11.5 mph - 0.04 in Snow Light Snow
10:53 PM 21.0 °F 9.3 °F 18.0 °F 88% 30.18 in 0.8 mi NE 11.5 mph - 0.04 in Snow Light Snow
11:34 PM 19.4 °F 7.2 °F 17.6 °F 93% 30.15 in 1.0 mi NE 11.5 mph - 0.02 in Snow Light Snow
11:53 PM 19.9 °F 7.3 °F 17.1 °F 89% 30.20 in 1.0 mi NE 12.7 mph - 0.02 in Snow Light Snow